This demonstration page uses our WeatherBlox Daily Observations layout. Learn more.

Left ArrowRight Arrow

Hourly Observations for January 4, 2017

Temp ( °F °C ) Dew Point ( °F °C ) Humidity (%) Winds ( mph kmh ) Pressure ( in mb ) Visibility ( mi km ) Precip ( " mm )
12:52 am 00:52 Clear 20 -6.7 13 -10.6 74 74 NNW 14 22 30.26 1025 10 16 0.00 0.00
1:52 am 01:52 Clear 19 -7.2 11 -11.7 71 71 N 14 22 30.26 1025 10 16 0.00 0.00
2:52 am 02:52 Clear 17 -8.3 11 -11.7 77 77 N 9 15 30.26 1025 10 16 0.00 0.00
3:52 am 03:52 Clear 16 -8.9 10 -12.2 77 77 NNW 9 15 30.27 1025 10 16 0.00 0.00
4:52 am 04:52 Clear 15 -9.4 10 -12.2 80 80 NNW 9 15 30.27 1025 10 16 0.00 0.00
5:52 am 05:52 Clear 14 -10 10 -12.2 84 84 NNW 9 15 30.29 1026 10 16 0.00 0.00
6:52 am 06:52 Clear 13 -10.6 8 -13.3 81 81 NNW 7 11 30.30 1026 10 16 0.00 0.00
7:52 am 07:52 Sunny 14 -10 8 -13.3 77 77 NNW 6 9 30.30 1026 10 16 0.00 0.00
8:52 am 08:52 Sunny 17 -8.3 9 -12.8 70 70 N 15 24 30.32 1027 10 16 0.00 0.00
9:52 am 09:52 Sunny 19 -7.2 10 -12.2 68 68 N 13 20 30.33 1027 10 16 0.00 0.00
10:52 am 10:52 Sunny 22 -5.6 9 -12.8 57 57 N 8 13 30.32 1027 10 16 0.00 0.00
11:52 am 11:52 Sunny 25 -3.9 9 -12.8 50 50 N 10 17 30.28 1025 10 16 0.00 0.00
12:52 pm 12:52 Sunny 27 -2.8 8 -13.3 45 45 N 7 11 30.22 1023 10 16 0.00 0.00
1:52 pm 13:52 Sunny 29 -1.7 7 -13.9 39 39 VRB 3 6 30.17 1022 10 16 0.00 0.00
2:52 pm 14:52 Sunny 31 -0.6 7 -13.9 36 36 NNE 3 6 30.15 1021 10 16 0.00 0.00
3:52 pm 15:52 Sunny 31 -0.6 5 -15 33 33 ENE 6 9 30.14 1021 10 16 0.00 0.00
4:52 pm 16:52 Sunny 30 -1.1 4 -15.6 33 33 E 8 13 30.10 1019 10 16 0.00 0.00
5:52 pm 17:52 Clear 28 -2.2 6 -14.4 39 39 ENE 5 7 30.08 1019 10 16 0.00 0.00
6:52 pm 18:52 Clear 26 -3.3 8 -13.3 46 46 NNE 9 15 30.08 1019 10 16 0.00 0.00
7:52 pm 19:52 Cloudy 25 -3.9 8 -13.3 48 48 NNE 9 15 30.10 1019 10 16 0.00 0.00
8:52 pm 20:52 Cloudy 26 -3.3 8 -13.3 46 46 NE 9 15 30.09 1019 10 16 0.00 0.00
9:52 pm 21:52 Cloudy 26 -3.3 8 -13.3 46 46 ENE 9 15 30.04 1017 10 16 0.00 0.00
10:52 pm 22:52 Cloudy 26 -3.3 8 -13.3 46 46 ENE 8 13 30.06 1018 10 16 0.00 0.00
11:52 pm 23:52 Cloudy 26 -3.3 9 -12.8 48 48 ENE 7 11 30.07 1018 10 16 0.00 0.00

Powered by AerisWeather